• In Latvia
  • List of Countries
  • For 7 days
  • Water Temperature
  • Satellite Maps
  • Weather Map
  • Weather Widgets
  • user-avatar
    Login

    Hourly Weather Malanje

    Today, 14 November, Wednesday

    Time Temperature Precipitation Wind Pressure Humidity
    00:00 +23°C° 0.5 mm 1 mps 663 mmHg 81%
    01:00 +22°C° 0.5 mm 1 mps 663 mmHg 84%
    02:00 +22°C° 0.4 mm 1 mps 663 mmHg 88%
    03:00 +20°C° 0.4 mm 2 mps 663 mmHg 92%
    04:00 +20°C° 0.4 mm 2 mps 663 mmHg 96%
    05:00 +20°C° 0.4 mm 2 mps 663 mmHg 96%
    06:00 +21°C° 0.4 mm 2 mps 664 mmHg 95%
    07:00 +21°C° 0.4 mm 2 mps 664 mmHg 95%
    08:00 +23°C° 0.4 mm 1 mps 665 mmHg 90%
    09:00 +25°C° 0.4 mm 1 mps 665 mmHg 84%
    10:00 +27°C° 0.4 mm 1 mps 665 mmHg 79%
    11:00 +28°C° 0.3 mm 1 mps 665 mmHg 72%
    12:00 +29°C° 0.3 mm 1 mps 665 mmHg 65%
    13:00 +30°C° 0.3 mm 1 mps 665 mmHg 59%
    14:00 +29°C° 0.6 mm 1 mps 664 mmHg 64%
    15:00 +28°C° 0.6 mm 1 mps 663 mmHg 69%
    16:00 +27°C° 0.6 mm 2 mps 663 mmHg 74%
    17:00 +25°C° 0.1 mm 2 mps 663 mmHg 79%
    18:00 +24°C° 0.1 mm 1 mps 663 mmHg 84%
    19:00 +22°C° 0.1 mm 1 mps 663 mmHg 89%
    20:00 +22°C° 0 mm 1 mps 664 mmHg 89%
    21:00 +21°C° 0 mm 1 mps 664 mmHg 89%
    22:00 +21°C° 0 mm 1 mps 664 mmHg 90%
    23:00 +20°C° 0 mm 1 mps 664 mmHg 91%

    Tomorrow, 15 November, Thursday

    Time Temperature Precipitation Wind Pressure Humidity
    00:00 +19°C° 0 mm 2 mps 664 mmHg 93%
    01:00 +19°C° 0 mm 2 mps 664 mmHg 94%
    02:00 +19°C° 0 mm 2 mps 664 mmHg 95%
    03:00 +19°C° 0 mm 2 mps 664 mmHg 96%
    04:00 +19°C° 0 mm 2 mps 664 mmHg 97%
    05:00 +20°C° 0 mm 3 mps 664 mmHg 95%
    06:00 +21°C° 0 mm 3 mps 665 mmHg 92%
    07:00 +21°C° 0 mm 3 mps 665 mmHg 89%
    08:00 +24°C° 0 mm 3 mps 666 mmHg 81%
    09:00 +26°C° 0 mm 3 mps 666 mmHg 72%
    10:00 +28°C° 0 mm 3 mps 666 mmHg 63%
    11:00 +29°C° 0.1 mm 3 mps 666 mmHg 60%
    12:00 +30°C° 0.1 mm 2 mps 665 mmHg 56%
    13:00 +31°C° 0.1 mm 2 mps 665 mmHg 53%
    14:00 +30°C° 0.4 mm 2 mps 664 mmHg 57%
    15:00 +29°C° 0.4 mm 2 mps 664 mmHg 61%
    16:00 +28°C° 0.4 mm 3 mps 663 mmHg 66%
    17:00 +26°C° 0.1 mm 3 mps 663 mmHg 73%
    18:00 +24°C° 0.1 mm 3 mps 664 mmHg 80%
    19:00 +21°C° 0.1 mm 3 mps 664 mmHg 87%
    20:00 +21°C° 0 mm 3 mps 664 mmHg 89%
    21:00 +21°C° 0 mm 3 mps 665 mmHg 92%
    22:00 +20°C° 0 mm 3 mps 665 mmHg 94%
    23:00 +20°C° 0.1 mm 2 mps 665 mmHg 94%

    Day after tomorrow, 16 November, Friday

    Time Temperature Precipitation Wind Pressure Humidity
    00:00 +20°C° 0.1 mm 2 mps 665 mmHg 95%
    01:00 +20°C° 0.1 mm 2 mps 665 mmHg 95%
    02:00 +20°C° 0 mm 2 mps 665 mmHg 95%
    03:00 +20°C° 0 mm 2 mps 665 mmHg 96%
    04:00 +19°C° 0 mm 3 mps 664 mmHg 96%
    05:00 +20°C° 0 mm 3 mps 665 mmHg 94%
    06:00 +20°C° 0 mm 3 mps 665 mmHg 91%
    07:00 +20°C° 0 mm 3 mps 666 mmHg 88%
    08:00 +22°C° 0 mm 3 mps 666 mmHg 80%
    09:00 +25°C° 0 mm 2 mps 667 mmHg 71%
    10:00 +27°C° 0 mm 2 mps 668 mmHg 62%
    11:00 +28°C° 0 mm 2 mps 667 mmHg 59%
    12:00 +29°C° 0 mm 2 mps 666 mmHg 55%
    13:00 +30°C° 0 mm 3 mps 666 mmHg 51%
    14:00 +30°C° 0.3 mm 2 mps 665 mmHg 57%
    15:00 +29°C° 0.3 mm 2 mps 665 mmHg 63%
    16:00 +28°C° 0.3 mm 2 mps 664 mmHg 69%
    17:00 +26°C° 0.3 mm 2 mps 664 mmHg 75%
    18:00 +24°C° 0.3 mm 1 mps 665 mmHg 82%
    19:00 +22°C° 0.3 mm 1 mps 665 mmHg 88%
    20:00 +22°C° 0 mm 1 mps 665 mmHg 90%
    21:00 +21°C° 0 mm 1 mps 666 mmHg 91%
    22:00 +21°C° 0 mm 1 mps 666 mmHg 92%
    23:00 +21°C° 0 mm 1 mps 666 mmHg 94%

    17 November, Saturday

    Time Temperature Precipitation Wind Pressure Humidity
    00:00 +20°C° 0 mm 1 mps 665 mmHg 95%
    01:00 +20°C° 0 mm 1 mps 665 mmHg 97%
    02:00 +20°C° 0 mm 1 mps 665 mmHg 97%
    03:00 +20°C° 0 mm 1 mps 665 mmHg 98%
    04:00 +20°C° 0 mm 1 mps 665 mmHg 98%
    05:00 +20°C° 0 mm 1 mps 665 mmHg 97%
    06:00 +21°C° 0 mm 1 mps 666 mmHg 95%
    07:00 +21°C° 0 mm 1 mps 667 mmHg 94%
    08:00 +23°C° 0 mm 1 mps 667 mmHg 85%
    09:00 +26°C° 0 mm 1 mps 667 mmHg 77%
    10:00 +28°C° 0 mm 1 mps 668 mmHg 68%
    11:00 +29°C° 0.6 mm 1 mps 667 mmHg 65%
    12:00 +30°C° 0.6 mm 1 mps 666 mmHg 63%
    13:00 +29°C° 0.6 mm 0 mps 666 mmHg 60%
    14:00 +30°C° 0.8 mm 1 mps 665 mmHg 64%
    15:00 +29°C° 0.8 mm 1 mps 665 mmHg 68%
    16:00 +27°C° 0.8 mm 1 mps 664 mmHg 72%
    17:00 +26°C° 0.4 mm 1 mps 664 mmHg 77%
    18:00 +24°C° 0.4 mm 1 mps 664 mmHg 82%
    19:00 +22°C° 0.4 mm 1 mps 664 mmHg 87%
    20:00 +21°C° 0.1 mm 1 mps 665 mmHg 87%
    21:00 +21°C° 0.1 mm 1 mps 665 mmHg 87%
    22:00 +21°C° 0.1 mm 1 mps 666 mmHg 88%
    23:00 +20°C° 0.2 mm 1 mps 665 mmHg 91%

    18 November, Sunday

    Time Temperature Precipitation Wind Pressure Humidity
    00:00 +19°C° 0.2 mm 2 mps 665 mmHg 94%
    01:00 +19°C° 0.2 mm 2 mps 665 mmHg 97%
    02:00 +19°C° 0.1 mm 2 mps 665 mmHg 97%
    03:00 +19°C° 0.1 mm 2 mps 664 mmHg 97%
    04:00 +20°C° 0.1 mm 1 mps 664 mmHg 97%
    05:00 +20°C° 0 mm 1 mps 665 mmHg 96%
    06:00 +20°C° 0 mm 1 mps 665 mmHg 95%
    07:00 +21°C° 0 mm 1 mps 666 mmHg 94%
    08:00 +23°C° 0 mm 1 mps 666 mmHg 84%
    09:00 +25°C° 0 mm 1 mps 667 mmHg 75%
    10:00 +28°C° 0 mm 1 mps 667 mmHg 66%
    11:00 +29°C° 0.5 mm 1 mps 666 mmHg 64%
    12:00 +30°C° 0.5 mm 1 mps 666 mmHg 62%
    13:00 +31°C° 0.5 mm 1 mps 665 mmHg 59%
    14:00 +30°C° 1.3 mm 1 mps 664 mmHg 66%
    15:00 +28°C° 1.3 mm 1 mps 664 mmHg 72%
    16:00 +27°C° 1.3 mm 1 mps 663 mmHg 78%
    17:00 +25°C° 0.4 mm 1 mps 663 mmHg 82%
    18:00 +24°C° 0.4 mm 2 mps 664 mmHg 86%
    19:00 +21°C° 0.4 mm 2 mps 664 mmHg 90%
    20:00 +21°C° 0.8 mm 2 mps 664 mmHg 91%
    21:00 +21°C° 0.8 mm 1 mps 665 mmHg 93%
    22:00 +21°C° 0.8 mm 1 mps 665 mmHg 95%
    23:00 +21°C° 0.5 mm 1 mps 665 mmHg 96%

    19 November, Monday

    Time Temperature Precipitation Wind Pressure Humidity
    00:00 +21°C° 0.5 mm 1 mps 665 mmHg 97%
    01:00 +21°C° 0.5 mm 1 mps 664 mmHg 98%
    02:00 +20°C° 0.8 mm 2 mps 664 mmHg 98%
    03:00 +19°C° 0.8 mm 2 mps 664 mmHg 98%
    04:00 +19°C° 0.8 mm 2 mps 664 mmHg 97%
    05:00 +20°C° 0.1 mm 2 mps 665 mmHg 97%
    06:00 +21°C° 0.1 mm 1 mps 665 mmHg 96%
    07:00 +21°C° 0.1 mm 1 mps 666 mmHg 96%
    08:00 +23°C° 0 mm 1 mps 666 mmHg 87%
    09:00 +25°C° 0 mm 1 mps 667 mmHg 79%
    10:00 +27°C° 0 mm 1 mps 667 mmHg 70%
    11:00 +28°C° 0 mm 1 mps 666 mmHg 64%
    12:00 +30°C° 0 mm 1 mps 666 mmHg 58%
    13:00 +31°C° 0 mm 1 mps 665 mmHg 52%
    14:00 +30°C° 0.4 mm 1 mps 664 mmHg 57%
    15:00 +29°C° 0.4 mm 1 mps 664 mmHg 62%
    16:00 +28°C° 0.4 mm 1 mps 663 mmHg 68%
    17:00 +26°C° 0.7 mm 1 mps 663 mmHg 75%
    18:00 +24°C° 0.7 mm 1 mps 664 mmHg 82%
    19:00 +21°C° 0.7 mm 2 mps 664 mmHg 89%
    20:00 +21°C° 0.1 mm 2 mps 664 mmHg 90%
    21:00 +20°C° 0.1 mm 2 mps 664 mmHg 92%
    22:00 +20°C° 0.1 mm 2 mps 664 mmHg 94%
    23:00 +20°C° 0.1 mm 2 mps 664 mmHg 95%
    Show more